Find STARLINK-37927

NORAD ID: 799500986 Int'l Des: 2026-135L Constellation: starlink operational

当前视图

正在加载3D地球...

About STARLINK-37927

STARLINK-37927 (NORAD 799500986) is a starlink constellation satellite launched Jun 8, 2026

关于 STARLINK-37927

正在加载描述...

即将过境

Passes for default location (London). Set your location on the main map for personalized predictions.

高度历史

Loading altitude history...

两行轨道根数

1 99999C 2026135L 26167.10673610 .00476740 00000-0 736470-4 0 1676
2 99999 97.2794 193.9151 0010679 264.8218 342.9469 16.03867835 13
Epoch: Jun 16, 2026 • Age: 4 hours